Location: Dąbrowa Miętka
(51.3714°N, 18.6370°E)
Time: 14:06:34
(UTC+01:00)

ISS - Pass Details

Date: 29 January 2019
Orbit: 403 x 411 km, 51.6° (Epoch: 20 February)

Event Time Altitude Azimuth Distance (km) Brightness Sun altitude
Rises 18:16:22 0° 259° (WSW) 2,333 1.9 -16.6°
Reaches altitude 10° 18:18:27 10° 259° (WSW) 1,475 0.3 -16.9°
Maximum altitude 18:21:45 87° 172° (S) 417 -3.9 -17.4°
Enters shadow 18:22:23 56° 85° (E) 496 -3.8 -17.5°
